Regional Weather Roundup
Issued by NWS

Home | Current Version | Previous Version | Text Only | Print | Product List | Glossary Off
Versions: 1 2 3 4 5 6 7 8 9 10 11 12 13 14 15 16 17 18 19 20 21 22 23 24 25 26 27 28 29 30 31 32 33 34 35 36 37 38 39 40 41 42 43 44 45 46 47 48 49 50

357
ASUS43 KLMK 180702
RWRKY
KENTUCKY REGIONAL WEATHER ROUNDUP
NATIONAL WEATHER SERVICE LOUISVILLE KY
200 AM EST WED JAN 18 2017

NOTE "FAIR" INDICATES FEW OR NO CLOUDS BELOW 12,000 FEET
WITH NO SIGNIFICANT WEATHER AND/OR OBSTRUCTIONS TO VISIBILITY.

KYZ001>023-026-027-061>063-070>075-180800-
WESTERN AND SOUTH CENTRAL KENTUCKY

CITY           SKY/WX    TMP DP  RH WIND       PRES   REMARKS
PADUCAH        CLOUDY    45  38  76 NW3       30.17S
HENDERSON      CLOUDY    43  37  81 W12       30.16R
OWENSBORO      CLOUDY    44  39  82 W9        30.16R
HOPKINSVILLE   CLOUDY    44  40  84 NW7       30.16S
BOWLING GREEN  CLOUDY    46  40  79 NW5       30.15S
GLASGOW        NOT AVBL
$$

KYZ024-025-028>034-038-045-046-053-180800-
NORTH CENTRAL KENTUCKY

CITY           SKY/WX    TMP DP  RH WIND       PRES   REMARKS
LOUISVILLE/SDF CLOUDY    45  38  76 W13       30.12R
LOUISVILLE/LOU CLOUDY    45  38  76 W13       30.12S
FORT KNOX      CLOUDY    43  39  87 W13       30.10S
$$

KYZ035>037-039>044-047>052-055>060-089>105-180800-
NORTHEAST KENTUCKY

CITY           SKY/WX    TMP DP  RH WIND       PRES   REMARKS
LEXINGTON      CLOUDY    42  39  89 W10       30.10R
COVINGTON      DRIZZLE   43  41  93 W9        30.05R FOG
FRANKFORT      CLOUDY    43  38  82 W6        30.10R
$$

KYZ054-064>069-076>088-106>120-180800-
SOUTHEAST KENTUCKY

CITY           SKY/WX    TMP DP  RH WIND       PRES   REMARKS
JACKSON        CLOUDY    49  43  80 W8        30.05S
LONDON         CLOUDY    50  43  77 W10       30.08F
SOMERSET       CLOUDY    46  41  81 W10       30.12R
MIDDLESBORO    MOCLDY    55  48  78 CALM      30.07S
MONTICELLO     CLOUDY    49  44  83 W10       30.12S
$$





USA.gov is the U.S. government's official web portal to all federal, state and local government web resources and services.